TimeCEST,TemperatureF,Dew PointF,Humidity,Sea Level PressureIn,VisibilityMPH,Wind Direction,Wind SpeedMPH,Gust SpeedMPH,PrecipitationIn,Events,Conditions,WindDirDegrees,DateUTC
12:15 AM,48.2,42.8,82,29.68,-9999.0,West,15.7,-,N/A,,Clear,260,2013-09-17 22:15:00
12:45 AM,48.2,44.6,87,29.68,-9999.0,West,15.7,-,N/A,,Clear,270,2013-09-17 22:45:00
1:15 AM,48.2,42.8,82,29.68,-9999.0,West,13.4,-,N/A,,Clear,280,2013-09-17 23:15:00
1:45 AM,48.2,42.8,82,29.68,-9999.0,West,13.4,-,N/A,,Clear,270,2013-09-17 23:45:00
2:15 AM,48.2,42.8,82,29.68,-9999.0,West,11.2,-,N/A,,Clear,280,2013-09-18 00:15:00
2:45 AM,48.2,42.8,82,29.68,-9999.0,West,11.2,-,N/A,,Clear,280,2013-09-18 00:45:00
3:15 AM,46.4,41.0,81,29.68,-9999.0,West,13.4,-,N/A,,Clear,260,2013-09-18 01:15:00
3:45 AM,-9999,-9999,N/A,-9999,-9999.0,West,8.9,-,N/A,,Clear,260,2013-09-18 01:45:00
4:15 AM,46.4,41.0,81,29.68,-9999.0,West,11.2,-,N/A,,Clear,260,2013-09-18 02:15:00
4:45 AM,46.4,41.0,81,29.68,-9999.0,West,8.9,-,N/A,,Clear,270,2013-09-18 02:45:00
5:15 AM,44.6,39.2,81,29.68,-9999.0,WSW,2.2,-,N/A,,Clear,250,2013-09-18 03:15:00
5:45 AM,44.6,39.2,81,29.68,-9999.0,West,4.5,-,N/A,,Clear,260,2013-09-18 03:45:00
6:15 AM,44.6,41.0,87,29.68,-9999.0,WSW,8.9,-,N/A,,Clear,250,2013-09-18 04:15:00
6:45 AM,-9999,-9999,N/A,-9999,-9999.0,WSW,8.9,-,N/A,,Clear,250,2013-09-18 04:45:00
7:15 AM,46.4,41.0,81,29.68,-9999.0,West,8.9,-,N/A,,Clear,260,2013-09-18 05:15:00
7:45 AM,46.4,42.8,87,29.71,-9999.0,WSW,8.9,-,N/A,,Clear,250,2013-09-18 05:45:00
8:15 AM,48.2,42.8,82,29.71,-9999.0,WSW,11.2,-,N/A,,Clear,240,2013-09-18 06:15:00
8:45 AM,50.0,42.8,76,29.68,-9999.0,West,8.9,-,N/A,,Clear,260,2013-09-18 06:45:00
9:15 AM,51.8,42.8,71,29.68,-9999.0,West,8.9,-,N/A,,Clear,260,2013-09-18 07:15:00
9:45 AM,-9999,-9999,N/A,-9999,6.2,WSW,8.9,-,N/A,,Clear,250,2013-09-18 07:45:00
10:15 AM,57.2,41.0,55,29.68,6.2,West,11.2,-,N/A,,Scattered Clouds,280,2013-09-18 08:15:00
10:45 AM,59.0,42.8,55,29.68,6.2,West,11.2,-,N/A,,Scattered Clouds,270,2013-09-18 08:45:00
11:15 AM,60.8,41.0,48,29.68,6.2,West,11.2,-,N/A,,Mostly Cloudy,270,2013-09-18 09:15:00
11:45 AM,59.0,39.2,48,29.68,6.2,West,11.2,-,N/A,,Mostly Cloudy,260,2013-09-18 09:45:00
12:15 PM,60.8,42.8,52,29.68,6.2,West,11.2,22.4,N/A,,Mostly Cloudy,260,2013-09-18 10:15:00
12:45 PM,-9999,-9999,N/A,-9999,6.2,WSW,8.9,-,N/A,,Overcast,250,2013-09-18 10:45:00
1:15 PM,59.0,39.2,48,29.68,6.2,SW,11.2,-,N/A,,Mostly Cloudy,230,2013-09-18 11:15:00
1:45 PM,59.0,41.0,51,29.65,6.2,WSW,8.9,20.1,N/A,,Mostly Cloudy,240,2013-09-18 11:45:00
2:15 PM,60.8,39.2,45,29.65,6.2,SSW,11.2,-,N/A,,Mostly Cloudy,210,2013-09-18 12:15:00
2:45 PM,60.8,37.4,42,29.62,6.2,SW,8.9,-,N/A,,Mostly Cloudy,220,2013-09-18 12:45:00
3:15 PM,59.0,39.2,48,29.62,-9999.0,SSW,8.9,-,N/A,,Clear,210,2013-09-18 13:15:00
3:45 PM,-9999,-9999,N/A,-9999,6.2,SW,8.9,-,N/A,Rain,Light Rain,220,2013-09-18 13:45:00
4:15 PM,59.0,39.2,48,29.62,-9999.0,South,6.7,-,N/A,,Clear,190,2013-09-18 14:15:00
4:45 PM,59.0,41.0,51,29.62,-9999.0,South,6.7,-,N/A,,Clear,190,2013-09-18 14:45:00
5:15 PM,59.0,41.0,51,29.62,-9999.0,South,4.5,-,N/A,,Clear,190,2013-09-18 15:15:00
5:45 PM,59.0,41.0,51,29.62,-9999.0,South,4.5,-,N/A,,Clear,180,2013-09-18 15:45:00
6:15 PM,57.2,42.8,59,29.59,-9999.0,SSE,6.7,-,N/A,,Clear,160,2013-09-18 16:15:00
6:45 PM,-9999,-9999,N/A,-9999,6.2,South,6.7,-,N/A,Rain,Light Rain,180,2013-09-18 16:45:00
7:15 PM,57.2,44.6,63,29.59,-9999.0,SSE,4.5,-,N/A,,Clear,160,2013-09-18 17:15:00
7:45 PM,55.4,44.6,67,29.59,-9999.0,South,4.5,-,N/A,,Clear,180,2013-09-18 17:45:00
8:15 PM,55.4,44.6,67,29.62,-9999.0,SSW,4.5,-,N/A,,Clear,200,2013-09-18 18:15:00
8:45 PM,55.4,46.4,72,29.59,-9999.0,SSW,4.5,-,N/A,,Clear,200,2013-09-18 18:45:00
9:15 PM,57.2,46.4,67,29.59,-9999.0,SW,4.5,-,N/A,,Clear,220,2013-09-18 19:15:00
9:45 PM,-9999,-9999,N/A,-9999,6.2,SSW,6.7,-,N/A,Rain,Light Rain,210,2013-09-18 19:45:00
10:15 PM,57.2,46.4,67,29.59,-9999.0,SSW,4.5,-,N/A,,Clear,210,2013-09-18 20:15:00
10:45 PM,57.2,46.4,67,29.59,-9999.0,WSW,4.5,-,N/A,,Clear,240,2013-09-18 20:45:00
11:15 PM,57.2,46.4,67,29.59,-9999.0,WSW,4.5,-,N/A,,Clear,240,2013-09-18 21:15:00
11:45 PM,57.2,46.4,67,29.59,-9999.0,South,2.2,-,N/A,,Clear,180,2013-09-18 21:45:00